カタログに戻る

Gemini-Pollux

運用中科学SSO
NORAD 69000·PAYLOAD·🇬🇷 Greece

打ち上げ May 3, 2026 から Vandenberg Space Force Base

Loading…

次のパス (今後24時間)

TLE

最新Source: Space-Track

元期: Sep 14, 2026, 10:29 UTC

1 69000U 26100W   26257.43699000  .00001525  00000-0  15389-3 0  9999
2 69000  97.7197 153.2243 0001228  51.3093 308.8236 14.92517393 20018

AllMySatでGemini-Polluxをリアルタイム追跡

Download on the App Store